Wetbulb
52.71 53.12 53.53 53.14 53.22 53.26 51.92 52.70 50.44 52.38 54.07 56.18 56.37 55.72 57.20 60.97 70.84 70.51 70.83 70.93 71.43 71.29 71.89 70.91 71.76 71.99 73.11 73.06 73.10 73.46 73.95 72.97 73.76 71.61 72.08 72.55 71.47 71.17 70.78 69.99 68.34 69.18 69.13 68.14
51.50 53.64 53.33 51.39 52.33 52.80 52.43 52.87 53.52 53.43 54.46 58.96 58.01 58.29 57.83 60.96 69.24 70.36 70.69 70.68 71.48 71.70 70.41 70.26 70.54 71.98 73.27 73.50 73.68 74.26 73.52 72.55 74.00 72.03 72.43 71.81 71.22 70.06 70.12 68.25 67.92 69.16 68.12 66.66
48.95 53.01 52.63 49.71 51.70 52.40 53.26 54.24 53.51 52.03 57.86 59.06 56.87 58.19 58.40 67.76 69.64 69.15 70.19 71.04 71.44 70.12 69.77 71.08 71.65 74.40 73.42 74.30 74.89 74.06 72.99 72.75 71.93 72.98 72.28 71.01 70.88 68.30 68.62 67.54 67.24 67.87 67.09 66.02
50.44 52.79 44.74 52.81 56.41 56.27 55.33 55.70 55.55 57.21 59.48 57.40 54.49 56.11 57.71 68.61 70.23 70.32 70.46 71.44 71.12 70.00 70.73 72.58 72.82 72.98 73.69 73.13 73.43 72.49 71.05 70.57 70.70 70.53 71.63 71.84 70.71 69.20 68.61 67.08 65.37 65.09 65.83 65.45
48.83 47.94 51.09 52.84 55.23 55.22 54.99 54.65 62.09 60.66 60.16 58.89 58.45 58.10 67.28 69.30 71.43 71.80 71.61 72.77 70.53 71.74 72.44 71.51 72.23 72.53 72.67 72.28 72.59 69.38 67.90 67.82 67.07 65.92 67.33 71.28 67.71 67.06 67.57 66.46 65.92 65.89 65.70 65.12
49.98 45.67 44.05 53.47 55.81 60.28 60.42 52.56 64.23 61.15 56.59 55.36 56.45 52.16 64.57 71.77 72.79 72.55 72.25 72.03 71.62 71.68 69.89 69.86 69.74 71.34 71.08 68.60 66.47 64.92 64.23 62.89 63.31 62.85 62.53 67.96 67.95 66.71 66.79 66.56 64.48 64.48 63.17 61.94
48.11 46.37 49.10 55.90 56.88 61.48 49.81 56.71 65.92 62.98 60.30 57.97 54.80 55.76 69.35 70.96 70.30 71.08 70.88 68.82 69.76 68.23 67.10 67.44 67.96 69.42 66.73 64.06 61.72 62.19 62.05 61.37 60.64 59.35 59.00 61.59 64.45 64.87 65.63 64.29 63.96 62.22 61.79 60.42
49.75 46.86 44.03 56.65 59.67 57.53 63.92 67.15 66.89 66.90 65.60 67.03 66.70 67.48 68.28 67.07 66.47 67.63 67.19 67.61 67.02 65.75 64.80 65.81 67.18 66.06 62.22 60.02 61.26 61.24 59.71 58.14 57.06 56.42 56.48 57.50 58.58 58.59 59.83 62.24 60.80 59.74 58.82 55.63
53.18 51.92 64.52 65.31 65.27 67.07 67.36 66.82 67.37 67.73 67.79 67.98 66.28 65.00 64.71 63.54 64.25 65.79 66.32 66.73 64.93 62.97 62.14 62.74 64.68 63.68 59.72 59.99 60.41 59.38 58.00 56.51 55.50 54.81 54.56 54.37 54.87 55.17 54.91 54.79 54.43 53.28 52.14 52.17
56.18 59.48 62.10 64.43 65.66 66.05 67.20 66.62 67.73 68.12 68.26 67.70 65.06 63.64 62.44 63.16 64.12 64.57 64.78 63.98 63.55 62.59 61.33 60.12 61.55 60.81 60.40 60.43 60.29 58.47 56.27 55.28 53.85 52.50 51.82 52.15 53.04 52.78 52.72 52.70 51.85 50.62 50.77 50.67
56.59 60.69 60.15 62.85 64.31 64.74 66.09 67.46 68.20 68.62 68.50 67.73 65.48 63.75 63.25 62.11 62.84 62.70 63.10 62.64 62.96 61.78 60.39 59.32 60.56 60.58 60.49 60.40 60.36 58.53 57.39 56.09 54.77 53.79 52.41 49.94 47.92 49.20 51.31 50.19 51.52 52.33 52.43 52.70
54.96 59.86 61.17 61.65 64.10 65.09 64.91 65.03 66.52 66.50 66.43 67.11 65.66 64.08 62.46 61.27 62.12 62.36 62.66 62.50 61.91 61.65 60.36 59.94 60.20 59.43 60.47 61.46 61.44 60.06 58.60 57.37 56.41 55.38 54.55 53.65 51.70 49.09 44.31 44.14 42.96 42.49 44.05 47.96
56.51 59.65 58.57 63.58 63.53 64.64 64.12 65.26 66.31 66.12 66.25 63.87 64.20 63.34 62.14 60.68 61.70 59.91 61.53 60.73 59.98 59.56 60.04 60.12 59.76 59.17 59.91 60.96 60.99 61.27 59.45 58.58 56.96 56.52 55.97 54.69 53.94 52.93 49.44 45.41 41.25 40.37 40.01 39.68
60.18 60.03 59.10 61.30 60.43 62.90 63.73 64.70 64.42 65.56 64.28 63.02 62.54 62.68 62.58 61.07 60.81 60.58 60.28 60.67 60.82 60.22 59.97 60.04 59.37 59.03 60.98 61.43 62.22 61.91 61.05 54.18 60.16 59.67 58.62 57.84 57.12 56.44 54.36 52.45 51.20 49.17 41.90 44.19
57.97 59.14 59.49 60.27 61.72 59.77 61.10 62.99 63.52 63.97 63.31 61.89 62.74 62.33 62.23 61.05 60.98 60.19 60.53 60.94 61.05 60.10 59.97 59.66 59.09 59.71 61.28 61.33 60.74 60.12 58.55 56.30 56.38 55.72 55.04 55.28 56.52 55.16 53.72 54.90 53.36 51.19 48.86 43.70
56.88 57.16 58.17 58.04 58.89 60.70 60.92 61.55 61.65 63.04 63.45 62.82 62.60 62.63 63.32 63.30 61.92 61.17 60.67 61.18 59.95 59.18 60.51 59.77 59.19 60.75 60.53 58.88 59.03 56.95 55.37 54.24 54.70 55.50 54.25 55.45 54.60 53.62 53.14 53.98 54.99 53.50 52.26 50.59
54.19 54.04 55.86 56.78 58.43 59.56 59.17 60.30 60.29 60.56 63.37 63.06 61.72 63.35 62.11 61.64 61.31 60.04 59.66 60.63 60.98 61.05 61.27 60.28 59.57 59.22 58.90 59.78 58.79 55.31 53.79 54.38 54.19 55.30 54.98 54.81 54.45 54.18 54.25 54.11 53.30 52.50 52.02 48.09
56.73 57.16 57.19 57.03 55.57 57.56 58.86 59.33 59.32 61.52 62.14 61.85 63.27 62.98 62.10 60.89 59.71 59.11 59.78 60.41 59.96 59.84 60.50 60.56 58.92 59.16 59.19 59.21 59.41 57.09 55.72 55.48 56.11 55.44 55.78 56.61 55.34 55.81 55.78 54.84 54.25 53.33 52.07 48.62
57.04 56.27 56.42 57.23 57.81 58.25 57.69 58.91 59.49 60.48 61.61 61.87 61.99 61.78 62.12 60.96 60.88 60.37 60.21 59.84 59.14 57.64 59.19 59.50 57.08 58.19 60.06 59.51 58.01 57.38 56.51 56.26 56.07 56.46 57.08 54.76 56.38 56.40 55.06 56.86 55.86 55.84 54.73 49.74
56.19 56.44 57.08 56.89 57.98 58.37 58.39 59.19 60.73 61.39 61.79 61.75 61.61 61.45 61.15 61.51 60.72 60.06 59.43 58.24 59.65 59.53 59.22 57.43 57.56 59.29 60.03 60.11 56.34 56.99 57.29 57.40 56.92 54.72 55.21 56.13 56.41 56.55 56.31 51.88 54.98 55.66 55.76 55.26
55.06 56.06 56.47 55.90 57.20 58.26 59.06 59.60 59.03 60.29 60.51 60.62 60.96 61.79 62.03 61.86 61.37 60.19 58.50 56.82 59.60 56.64 57.80 55.28 57.15 57.52 58.38 57.17 56.18 57.03 57.79 57.80 57.14 55.78 55.59 55.61 55.97 55.87 55.46 55.06 53.70 55.49 55.13 55.61
53.95 54.13 54.72 55.44 57.21 58.39 59.88 60.99 61.15 61.40 61.29 60.59 60.60 60.20 61.75 61.03 60.64 59.79 60.80 58.06 56.68 52.76 54.58 54.74 57.12 56.82 57.99 56.73 55.39 53.96 54.73 55.21 54.79 54.99 54.12 54.89 53.84 54.11 54.21 54.73 53.80 53.38 54.19 53.93
53.23 53.69 55.18 55.67 56.76 58.85 60.37 60.93 61.87 59.44 60.42 59.69 61.59 61.74 60.81 59.32 58.97 56.94 57.36 55.90 54.67 52.96 56.23 56.33 51.82 52.52 54.28 54.58 54.92 53.21 52.37 51.74 51.03 51.19 51.47 51.50 51.92 52.29 52.63 53.05 52.89 53.19 53.63 52.20
53.03 53.09 54.99 56.79 58.15 59.15 57.98 57.02 60.94 59.96 62.45 63.00 62.37 61.86 60.30 54.89 54.57 53.58 51.38 49.52 49.13 52.66 53.89 52.76 51.02 49.92 51.97 53.39 52.27 51.91 50.47 49.42 48.98 49.10 49.62 45.75 51.35 52.24 53.07 52.99 52.23 52.42 52.81 51.95
54.22 55.65 56.90 57.59 56.99 55.45 55.63 55.96 55.74 56.00 55.78 56.02 56.26 55.68 53.98 54.88 53.38 51.90 51.66 50.13 48.22 50.94 51.39 48.54 49.14 50.05 52.94 52.18 51.85 51.21 50.70 50.66 50.26 50.11 50.76 52.19 52.64 52.38 52.22 52.44 51.76 51.79 51.28 51.02
55.18 55.96 56.46 56.71 56.64 56.60 56.32 55.96 54.56 54.50 53.00 51.22 51.64 52.22 52.94 53.80 53.38 53.26 51.96 51.34 52.69 50.87 52.59 51.86 51.49 51.57 51.38 51.37 51.23 51.39 51.26 52.62 52.14 52.33 51.97 52.25 52.02 52.00 51.44 51.05 50.71 50.43 49.25 47.45
54.71 51.55 54.63 54.19 54.50 54.73 54.78 54.49 53.52 52.46 52.73 52.73 51.52 52.35 52.07 52.07 51.54 52.75 51.83 53.73 53.60 52.88 52.18 52.18 52.19 52.12 52.78 52.23 52.70 53.65 53.14 51.45 47.30 51.13 51.73 51.61 51.18 50.48 50.13 49.38 48.73 47.80 46.21 44.69
MSLP
1001.75 1001.07 1000.48 999.98 999.62 999.30 999.40 999.71 1000.19 1000.84 1002.61 1005.26 1006.38 1006.55 1009.61 1006.55 1004.01 1004.36 1004.41 1005.11 1006.35 1007.58 1008.53 1008.94 1009.49 1009.55 1009.63 1009.89 1010.42 1011.26 1012.05 1012.61 1013.06 1013.52 1014.27 1014.81 1015.27 1015.73 1016.01 1016.02 1016.04 1016.04 1016.14 1016.28
1002.61 1001.82 1000.85 999.91 999.37 999.09 999.14 999.12 999.36 1000.30 1001.72 1004.68 1007.29 1007.55 1008.45 1007.08 1004.47 1004.90 1004.97 1005.74 1006.63 1007.97 1009.03 1009.59 1010.08 1010.32 1010.29 1010.46 1010.98 1011.49 1012.21 1012.68 1013.17 1013.55 1014.24 1014.74 1015.19 1015.82 1016.17 1016.31 1016.27 1016.29 1016.62 1016.79
1003.06 1002.13 1001.14 1000.30 999.42 998.96 999.03 999.11 999.48 1000.10 1001.59 1005.37 1007.88 1009.49 1008.29 1004.88 1004.37 1004.40 1005.01 1006.11 1006.95 1008.20 1009.22 1009.79 1010.08 1010.42 1010.73 1011.14 1011.71 1012.22 1012.79 1013.25 1013.46 1013.82 1014.20 1014.52 1015.17 1015.65 1016.20 1016.59 1016.43 1016.70 1017.08 1017.38
1003.76 1002.91 1001.57 1000.34 999.68 999.05 999.32 999.30 999.85 1000.69 1003.38 1005.34 1007.67 1006.87 1005.71 1004.15 1003.63 1004.35 1005.07 1006.13 1007.31 1008.23 1009.25 1009.64 1010.07 1010.88 1011.38 1011.97 1012.36 1012.73 1013.44 1013.88 1014.29 1014.62 1014.52 1014.61 1015.23 1015.66 1016.07 1016.70 1016.83 1017.09 1017.41 1017.70
1004.43 1003.34 1001.97 1000.65 1000.45 1000.42 1000.20 1000.20 1001.31 1003.44 1006.28 1008.24 1008.98 1010.03 1005.41 1004.59 1004.30 1004.68 1005.24 1006.37 1007.63 1008.67 1009.62 1010.41 1010.92 1011.61 1012.14 1012.54 1012.85 1013.56 1014.02 1014.62 1014.98 1015.38 1015.41 1015.14 1015.42 1015.86 1016.15 1016.70 1017.00 1017.27 1017.54 1017.85
1005.03 1003.76 1002.24 1001.10 1000.75 1001.38 1001.20 1000.58 1001.87 1003.81 1007.00 1007.74 1009.43 1010.75 1007.35 1006.04 1005.76 1005.53 1006.37 1007.59 1008.47 1009.45 1011.02 1011.70 1012.26 1012.34 1012.85 1013.50 1013.97 1014.53 1015.20 1015.89 1016.23 1016.50 1016.42 1015.80 1015.73 1016.17 1016.49 1016.91 1017.16 1017.55 1017.94 1018.57
1004.98 1004.37 1003.13 1001.77 1001.80 1002.81 1005.26 1004.06 1003.47 1003.99 1005.74 1007.22 1007.72 1009.23 1009.16 1007.93 1007.46 1007.90 1008.71 1009.65 1010.09 1010.73 1011.23 1012.31 1013.05 1013.41 1013.95 1014.70 1015.57 1016.13 1016.43 1016.82 1017.13 1017.33 1017.22 1016.76 1016.62 1016.78 1016.91 1017.21 1017.53 1018.12 1018.56 1019.30
1004.74 1004.36 1003.37 1002.55 1002.82 1003.71 1005.35 1004.79 1004.66 1003.74 1004.98 1006.03 1007.38 1008.17 1008.52 1008.96 1009.33 1009.45 1010.06 1010.93 1011.41 1011.79 1012.86 1013.61 1013.83 1014.33 1015.26 1016.00 1016.53 1016.92 1017.33 1017.64 1017.96 1018.12 1018.02 1017.83 1017.73 1017.80 1017.81 1017.84 1018.24 1018.71 1019.33 1019.77
1004.32 1004.19 1003.88 1003.90 1004.66 1005.87 1006.02 1005.46 1004.85 1004.77 1005.06 1006.31 1007.75 1009.18 1010.06 1010.36 1010.55 1010.70 1010.89 1011.67 1012.45 1013.17 1013.88 1014.51 1014.61 1015.12 1016.08 1016.72 1016.99 1017.41 1017.71 1018.14 1018.55 1018.78 1018.83 1018.80 1018.77 1018.78 1018.86 1019.07 1019.32 1019.79 1020.29 1020.77
1004.77 1004.39 1004.99 1005.12 1005.60 1005.90 1005.94 1005.93 1005.42 1005.18 1005.46 1006.38 1008.13 1009.73 1010.55 1010.96 1011.13 1011.51 1011.70 1012.32 1013.06 1013.74 1014.50 1015.20 1015.65 1016.06 1016.60 1016.89 1017.19 1017.53 1017.91 1018.41 1018.90 1019.19 1019.54 1019.68 1019.69 1019.84 1019.99 1020.26 1020.54 1020.72 1020.94 1021.31
1005.35 1005.76 1006.57 1005.02 1005.91 1006.49 1006.52 1006.60 1006.08 1006.44 1006.53 1007.10 1008.61 1009.95 1010.92 1011.62 1012.06 1012.48 1012.47 1012.81 1013.39 1014.33 1015.27 1015.69 1015.93 1016.30 1016.74 1017.00 1017.25 1017.49 1017.71 1018.14 1018.72 1019.34 1019.71 1020.17 1020.60 1020.78 1021.00 1021.35 1021.29 1021.36 1021.54 1021.68
1007.58 1007.98 1007.68 1006.92 1007.08 1006.99 1006.81 1007.06 1007.29 1007.79 1008.05 1008.62 1009.43 1010.43 1011.48 1012.17 1012.70 1012.94 1013.04 1013.50 1014.10 1014.66 1015.31 1016.02 1016.31 1016.34 1016.80 1017.01 1017.13 1017.40 1017.40 1017.74 1018.36 1018.94 1019.30 1019.74 1020.41 1021.11 1021.88 1022.01 1022.09 1022.03 1021.91 1022.02
1008.61 1008.94 1008.98 1008.02 1007.82 1007.51 1007.24 1007.51 1008.05 1008.57 1009.08 1010.02 1010.66 1011.26 1011.90 1012.60 1013.06 1013.41 1013.51 1013.81 1014.29 1014.84 1015.49 1015.98 1016.46 1016.53 1016.72 1016.99 1017.15 1017.13 1017.30 1017.74 1018.05 1018.27 1018.70 1019.11 1019.62 1020.17 1021.13 1022.34 1022.44 1022.48 1022.57 1022.64
1008.88 1008.74 1008.46 1008.39 1008.61 1008.26 1007.65 1007.66 1008.38 1009.36 1010.21 1010.95 1011.44 1011.89 1012.12 1012.76 1013.25 1013.35 1013.65 1014.03 1014.51 1015.02 1015.48 1016.04 1016.37 1016.63 1016.73 1016.89 1017.05 1017.01 1016.91 1017.13 1017.03 1016.98 1017.20 1017.64 1018.25 1018.66 1019.47 1020.29 1021.10 1022.20 1022.72 1022.53
1009.18 1009.02 1008.75 1008.55 1008.56 1009.25 1009.31 1008.01 1008.82 1009.41 1010.43 1011.21 1011.77 1011.98 1012.20 1012.69 1013.04 1013.51 1013.97 1014.26 1014.63 1015.05 1015.50 1015.93 1016.30 1016.50 1016.68 1016.75 1016.88 1016.83 1016.57 1016.56 1016.66 1016.88 1017.02 1017.22 1017.25 1017.61 1018.09 1018.70 1019.68 1020.78 1021.79 1022.51
1009.41 1009.21 1009.40 1009.14 1008.87 1008.96 1008.79 1008.60 1008.72 1009.68 1010.39 1010.97 1011.65 1011.92 1011.87 1012.19 1012.90 1013.47 1014.07 1014.47 1014.74 1015.05 1015.42 1015.79 1016.18 1016.30 1016.56 1016.70 1016.72 1016.82 1016.89 1016.97 1016.99 1017.00 1017.00 1016.96 1017.14 1017.44 1018.01 1018.45 1018.76 1019.33 1019.88 1020.73
1009.94 1009.77 1009.59 1009.30 1009.28 1009.40 1009.03 1009.08 1009.68 1010.60 1010.41 1011.15 1011.39 1011.70 1012.09 1012.54 1012.89 1013.66 1014.33 1014.69 1014.79 1015.24 1015.65 1016.05 1016.24 1016.48 1016.68 1016.52 1016.49 1016.74 1016.95 1017.10 1017.03 1016.59 1016.76 1017.04 1017.34 1017.62 1017.89 1017.92 1018.21 1018.70 1019.31 1019.97
1010.29 1010.21 1009.97 1009.73 1009.56 1010.38 1009.32 1009.47 1009.52 1010.27 1010.80 1011.59 1011.61 1011.39 1012.02 1012.72 1013.16 1013.82 1014.25 1014.63 1014.99 1015.35 1015.71 1016.18 1016.67 1016.75 1016.77 1016.59 1016.46 1016.56 1016.77 1016.72 1016.41 1016.62 1017.08 1017.25 1017.56 1017.49 1017.56 1017.54 1017.65 1017.88 1018.54 1019.20
1010.76 1010.40 1010.26 1009.93 1009.56 1009.41 1009.49 1009.51 1009.30 1009.78 1010.88 1011.55 1012.27 1011.93 1012.16 1012.76 1013.36 1013.67 1013.86 1014.45 1014.86 1014.87 1015.52 1016.30 1016.89 1016.79 1016.86 1016.92 1016.75 1016.37 1016.43 1016.38 1016.67 1016.82 1016.96 1017.63 1017.80 1017.53 1017.31 1017.14 1017.20 1017.24 1017.45 1018.45
1011.57 1011.31 1010.79 1009.99 1009.71 1009.47 1009.25 1009.25 1008.87 1009.48 1010.54 1011.47 1011.64 1011.64 1011.73 1012.15 1013.09 1013.78 1014.53 1014.87 1014.64 1014.66 1015.86 1016.62 1016.85 1016.69 1016.99 1017.24 1017.18 1016.77 1016.36 1016.46 1016.94 1017.36 1017.48 1017.64 1017.50 1017.36 1017.35 1017.43 1017.32 1017.31 1017.39 1017.81
1011.98 1011.78 1011.40 1010.93 1010.00 1009.59 1009.24 1008.84 1008.95 1009.23 1009.96 1010.86 1012.12 1012.11 1011.82 1012.23 1012.71 1013.46 1014.24 1015.01 1015.04 1015.34 1016.01 1016.80 1016.91 1017.13 1017.24 1017.43 1017.37 1017.02 1016.99 1017.35 1017.58 1017.77 1017.86 1017.78 1017.70 1017.71 1017.80 1017.66 1017.48 1017.45 1017.43 1017.63
1012.83 1012.37 1011.77 1011.38 1010.65 1009.82 1009.35 1008.62 1008.45 1008.78 1009.63 1010.68 1011.35 1012.49 1012.08 1012.84 1013.29 1013.62 1014.16 1014.88 1015.43 1015.71 1016.34 1016.91 1017.06 1017.11 1017.18 1017.51 1017.69 1017.82 1017.61 1017.85 1017.93 1018.00 1018.14 1018.22 1018.24 1018.22 1018.05 1017.87 1017.85 1017.87 1017.75 1017.82
1013.05 1012.75 1012.17 1011.70 1010.96 1010.13 1009.36 1008.94 1009.03 1008.40 1009.69 1010.82 1011.89 1012.00 1012.44 1013.01 1013.29 1013.95 1014.75 1015.15 1015.70 1016.19 1016.33 1017.05 1017.55 1017.38 1017.59 1017.85 1017.99 1018.73 1019.10 1019.28 1019.48 1019.73 1019.67 1019.59 1019.40 1019.29 1018.74 1018.21 1018.22 1018.09 1017.92 1018.10
1013.03 1012.89 1012.37 1011.80 1011.06 1010.99 1011.20 1011.91 1010.02 1010.15 1010.19 1011.03 1011.86 1013.00 1013.42 1013.16 1014.28 1014.95 1015.50 1015.78 1016.24 1016.71 1017.48 1018.00 1018.11 1018.06 1018.33 1018.82 1019.37 1019.96 1020.25 1020.40 1020.55 1020.57 1020.55 1020.50 1020.01 1019.17 1018.53 1018.43 1018.36 1018.59 1018.90 1019.13
1012.92 1012.57 1012.28 1011.84 1011.55 1011.50 1011.61 1012.86 1012.45 1012.70 1012.41 1012.66 1013.40 1013.50 1013.87 1014.52 1015.29 1016.52 1016.73 1017.39 1017.51 1018.01 1018.84 1019.19 1019.12 1019.24 1019.53 1019.89 1020.14 1020.36 1020.54 1020.77 1020.87 1020.82 1020.54 1019.99 1019.59 1019.15 1019.23 1019.26 1019.51 1019.76 1020.16 1020.63
1012.88 1012.79 1012.70 1012.57 1012.56 1012.65 1012.73 1013.04 1013.46 1014.08 1014.19 1014.48 1014.72 1015.30 1015.96 1016.51 1016.97 1017.38 1017.97 1018.35 1018.80 1019.02 1019.51 1019.76 1019.81 1019.87 1019.91 1020.18 1020.28 1020.41 1020.81 1020.61 1020.54 1020.29 1020.07 1019.77 1019.78 1019.87 1020.08 1020.31 1020.53 1020.84 1021.30 1021.99
1013.41 1013.51 1013.56 1013.69 1013.72 1013.68 1013.89 1013.92 1014.20 1014.64 1015.12 1015.41 1015.85 1016.64 1017.10 1017.37 1017.87 1018.29 1018.67 1018.85 1019.14 1019.59 1019.88 1020.11 1020.16 1020.20 1020.21 1020.27 1020.11 1020.04 1020.26 1020.36 1020.38 1020.29 1020.11 1020.29 1020.60 1020.91 1021.17 1021.42 1021.64 1021.98 1022.43 1022.89
Wind_Speed
15 18 17 15 16 17 14 16 15 16 6 9 6 19 14 33 10 11 12 12 14 11 9 9 5 4 4 3 8 9 5 5 6 7 9 6 6 7 6 7 6 5 5 7
16 19 21 19 19 14 16 18 15 15 10 7 10 5 21 25 11 11 12 13 15 13 10 8 6 5 5 6 7 7 6 3 5 7 7 6 7 8 6 5 4 6 5 9
14 16 15 16 16 14 15 15 17 16 5 21 20 14 26 12 13 12 14 12 15 14 9 9 10 5 4 7 6 4 3 4 5 2 5 5 8 9 8 4 5 6 6 8
12 13 16 14 11 8 15 13 15 13 20 24 23 31 31 5 10 10 13 14 15 12 9 8 8 8 8 7 3 3 8 6 7 8 4 4 7 8 9 5 5 5 5 7
11 13 14 17 4 16 14 13 14 23 27 13 11 18 6 6 8 11 11 15 12 11 11 9 9 7 5 3 4 10 6 8 7 9 8 2 9 7 6 7 4 5 5 6
12 14 16 12 14 14 20 6 13 16 24 23 16 7 3 13 15 16 17 13 13 14 12 10 7 6 5 7 10 9 9 9 8 8 8 4 6 6 5 5 5 6 8 8
12 13 16 17 15 21 16 8 12 10 10 17 13 16 3 10 14 14 15 14 13 11 10 9 6 5 8 10 9 8 8 7 7 7 7 7 6 5 4 4 6 7 8 8
11 14 20 13 11 4 2 6 8 9 8 11 10 7 10 11 8 10 12 12 14 12 9 5 6 8 9 8 6 6 8 8 8 7 6 6 8 7 7 5 7 6 5 7
9 7 7 11 13 11 8 4 7 7 9 9 11 10 8 9 10 10 10 10 12 11 9 8 7 9 9 6 7 8 8 8 8 8 7 7 7 6 6 7 6 5 4 4
3 6 10 10 12 11 9 8 6 3 8 7 11 9 9 9 9 9 8 9 10 10 9 8 7 8 8 7 7 9 9 9 8 8 8 7 6 6 5 5 4 4 4 3
6 7 10 9 11 8 8 8 8 14 13 13 11 9 10 8 8 8 10 10 9 10 8 7 7 7 6 6 7 8 9 9 8 7 8 8 7 5 5 4 2 3 2 2
5 11 8 7 8 8 7 7 7 8 8 10 8 8 10 7 7 7 9 8 7 8 8 7 6 9 7 4 5 6 7 7 6 6 6 7 7 7 11 8 9 9 8 4
3 3 7 11 2 2 4 8 13 9 7 5 7 8 8 7 5 6 6 8 8 8 8 7 6 6 6 5 5 5 7 7 7 7 7 7 6 7 7 5 7 8 7 7
6 5 6 3 7 9 6 4 10 11 9 6 6 6 7 8 9 8 7 8 9 9 9 8 7 6 5 6 6 7 5 4 5 5 6 8 8 8 8 9 8 5 2 2
6 8 6 9 1 7 17 1 7 7 9 9 6 7 7 8 8 7 7 8 8 7 8 8 8 8 8 7 6 6 5 4 5 5 5 3 3 4 5 5 8 7 6 4
6 5 10 12 9 6 6 11 6 6 8 10 8 8 9 8 10 9 6 6 6 6 7 7 8 7 7 7 7 5 6 7 6 5 5 4 4 5 6 4 3 5 7 8
6 7 10 10 5 4 9 4 1 7 5 10 10 10 7 10 10 10 6 5 4 7 6 6 7 7 7 6 6 6 6 4 4 4 5 5 4 5 3 2 3 3 7 6
7 8 11 13 1 10 7 6 9 5 4 1 6 8 10 11 9 9 6 7 6 5 5 7 7 7 6 6 5 5 5 5 5 6 4 2 3 0 3 2 2 2 8 6
13 9 10 12 12 11 9 7 8 4 9 5 11 8 7 9 9 9 12 10 8 6 8 8 7 7 5 2 3 4 5 4 3 4 1 4 3 5 3 3 3 1 2 8
13 15 19 11 13 10 11 10 11 6 9 11 8 10 12 12 12 9 7 4 6 6 9 9 8 5 4 3 5 7 2 3 5 4 4 4 3 6 6 4 5 6 3 4
12 13 15 16 12 12 13 10 9 6 11 12 10 12 10 11 11 11 10 6 3 11 12 11 8 6 5 5 3 3 5 5 3 3 2 2 4 6 5 4 4 2 5 1
11 15 12 13 15 13 11 12 11 7 13 10 8 15 12 11 11 9 7 7 7 12 9 8 5 3 6 6 4 8 3 4 3 2 6 7 7 6 5 4 5 7 5 3
11 12 13 12 13 15 16 13 17 8 4 12 14 13 11 8 7 6 5 5 7 2 8 6 4 10 8 3 8 9 10 11 10 8 8 8 9 10 10 6 3 5 5 7
7 11 13 13 13 15 8 14 8 14 10 12 14 10 10 10 10 7 8 13 15 14 10 9 12 15 13 9 10 8 6 5 5 4 4 5 7 8 5 4 6 9 11 11
9 10 10 8 3 3 12 4 9 11 12 13 13 13 14 9 9 8 11 9 14 14 11 12 15 13 9 6 5 4 4 3 0 3 6 6 7 6 10 9 9 9 11 10
4 1 4 6 5 4 5 7 7 7 9 9 9 9 9 8 8 9 8 10 8 9 6 4 5 5 5 4 3 4 4 4 6 5 7 3 8 8 9 9 10 10 9 10
7 7 6 6 6 8 8 9 8 8 7 8 10 7 8 8 8 8 8 7 7 6 5 4 3 3 4 5 7 8 6 5 6 5 7 9 8 9 8 8 8 8 8 9
Wind_Direction
283 284 285 247 227 237 228 245 251 278 133 117 107 89 353 302 145 149 139 148 129 140 115 109 93 57 100 136 127 137 156 184 154 120 127 132 126 96 82 66 77 75 76 63
278 282 278 268 264 260 273 288 286 255 263 143 102 121 205 250 146 158 151 155 141 138 130 131 138 218 183 112 133 149 173 131 152 126 137 147 130 123 107 93 88 84 81 72
266 279 271 272 272 257 267 267 267 282 295 93 67 33 282 210 163 170 161 164 143 138 156 165 178 191 139 88 90 126 96 13 43 271 173 172 143 134 122 114 106 98 60 79
277 273 252 263 300 316 325 278 272 311 122 137 149 188 231 257 149 163 165 157 140 142 162 165 148 67 75 92 95 108 66 47 23 4 321 199 137 137 123 132 125 114 106 96
263 259 268 272 84 294 293 265 43 61 86 83 36 339 104 82 122 159 162 129 125 132 103 86 92 105 100 121 112 88 58 55 29 15 345 304 127 137 136 138 136 126 111 96
263 277 257 269 279 350 297 200 43 83 97 92 99 281 351 53 59 60 95 112 111 104 98 83 68 80 88 54 58 57 49 42 27 5 343 325 126 134 131 135 127 105 85 73
236 254 268 282 297 92 337 2 3 73 104 136 131 187 225 90 77 80 91 98 101 98 92 93 91 91 86 78 66 57 59 56 44 25 11 17 58 59 115 130 97 108 98 82
245 257 259 288 326 33 78 28 350 34 88 94 95 120 94 89 85 106 105 131 104 96 89 83 113 103 87 92 92 86 82 73 59 44 30 34 52 46 44 83 95 85 93 82
219 266 85 51 66 57 18 18 20 20 50 93 120 108 123 124 128 129 121 102 101 94 89 64 58 100 116 109 103 95 88 83 74 63 49 41 45 50 59 56 75 73 86 84
324 135 97 79 68 38 26 13 339 16 93 100 101 117 120 127 127 109 100 93 110 123 114 111 96 99 117 124 120 113 105 101 88 76 71 58 57 48 57 60 67 80 94 105
263 105 82 32 71 42 30 22 17 39 20 98 117 131 134 142 134 90 79 78 83 98 105 109 109 105 111 118 121 115 113 106 102 98 94 83 61 44 64 50 45 115 110 117
35 8 16 7 32 15 12 41 46 46 55 74 119 134 137 129 134 124 117 116 112 117 126 135 124 119 118 119 130 142 134 118 118 121 117 110 106 89 55 60 50 62 65 78
141 59 318 316 284 2 5 43 26 76 58 89 93 132 131 135 140 128 137 129 138 134 137 135 135 130 134 141 146 117 111 137 135 138 132 132 133 129 119 76 68 69 71 65
33 352 315 51 4 341 320 81 111 90 92 96 120 127 151 130 152 151 148 143 141 143 144 139 139 129 128 147 150 162 150 200 174 149 156 158 164 160 149 155 130 115 118 142
302 335 318 324 35 48 328 131 107 117 127 136 159 156 154 157 147 136 148 150 151 146 143 141 141 145 156 152 141 160 184 112 93 70 63 65 85 67 79 85 117 128 140 187
302 314 308 306 304 297 311 10 17 154 153 155 167 182 182 148 126 141 139 144 163 156 148 143 140 161 136 148 185 103 73 70 133 155 169 128 108 106 120 134 174 153 185 143
304 311 323 320 340 334 303 288 82 32 236 178 177 199 138 128 130 131 162 161 137 118 121 137 139 145 159 180 137 141 131 169 257 146 90 83 83 76 57 75 101 64 109 108
290 294 299 291 175 288 232 276 303 79 122 340 197 168 147 142 147 142 145 134 135 134 148 132 153 158 183 174 162 148 135 196 196 98 138 173 23 209 194 173 188 155 145 160
329 286 276 286 291 294 318 236 257 228 158 124 217 165 137 149 163 159 148 162 156 153 138 150 148 187 178 111 327 188 177 157 121 160 28 102 229 255 335 357 353 285 161 154
324 324 323 281 283 280 276 299 271 175 136 175 184 177 180 165 157 150 146 169 190 153 133 135 173 174 165 240 1 324 272 75 63 83 62 325 21 347 46 355 331 322 9 52
298 295 309 313 280 277 279 264 264 214 163 145 210 215 190 143 152 145 153 189 157 127 130 150 197 156 189 171 252 285 28 56 46 29 338 278 3 3 346 321 334 284 298 345
293 284 281 301 303 289 284 280 268 237 172 169 144 231 164 158 153 153 158 149 148 128 139 178 211 141 156 176 52 34 30 60 65 38 26 31 17 9 343 9 27 354 15 236
276 273 276 287 281 277 274 271 294 223 168 139 184 164 156 144 134 138 145 114 108 100 174 123 65 96 81 328 100 63 56 51 46 39 31 19 9 352 327 324 4 308 3 19
262 253 247 258 282 282 310 26 44 46 66 103 102 125 119 98 81 74 76 90 97 84 82 80 75 70 81 79 76 76 61 54 48 35 12 307 276 272 282 18 8 30 38 40
251 261 269 263 262 42 83 103 81 90 74 69 75 64 63 50 93 87 81 75 88 100 96 74 75 74 84 81 87 88 79 69 130 244 255 266 296 32 32 26 45 32 53 41
251 116 58 51 70 89 88 84 88 94 88 81 71 74 76 80 81 89 94 106 99 90 97 92 94 92 105 131 155 166 195 220 232 235 250 341 46 30 35 27 30 38 47 45
72 64 74 76 64 68 75 73 77 72 72 97 99 97 95 95 86 91 106 98 102 104 107 121 128 155 169 199 213 213 173 111 47 2 33 44 42 44 29 29 29 33 27 43